User: anonymous   Login
Location: Campo Alegre
(10.1673°N, 67.4431°W)
Time: 18:06:41
(UTC+00:00)
Language:

PAYLOAD B - Orbit

View from above orbital plane
View from above orbital plane
View from above satellite
View from above satellite

Ground track
Ground track

The orbit data is extracted from the following two-line orbital elements,

1 27431U 02024B   24165.69004063  .00000133  00000-0  10111-3 0  9995
2 27431  99.0541 204.2143 0016156 140.6399 219.5948 14.09987616136104
Epoch (UTC): 13 June 2024 16:33:39
Eccentricity: 0.0016156
inclination: 99.0541°
perigee height: 848 km
apogee height: 871 km
right ascension of ascending node: 204.2143°
argument of perigee: 140.6399°
revolutions per day: 14.09987616
mean anomaly at epoch: 219.5948°
orbit number at epoch: 13610

The dashed part of the orbit path shows where the satellite is in the earth's shadow,  

DLR